DW5624 Weather Reports


time (UTC)temp
C
wind
direction
speed
KPH
gust
KPH
rain 1hr
cm
rain 24hr
cm
rain mn
cm
humidity
%
barometer
mb
20260502181904 23 7 9.7 20.9 0.00 3.15 0.00 59 1018.2
20260502181405 23 10 8.0 16.1 0.00 3.15 0.00 55 1018.3
20260502180905 23 348 8.0 14.5 0.00 3.15 0.00 55 1018.4
20260502163905 21 353 8.0 19.3 0.00 4.62 0.00 68 1018.5
20260502163405 21 348 6.4 20.9 0.00 4.95 0.00 66 1018.4
20260502162905 21 357 8.0 19.3 0.00 5.03 0.00 68 1018.5
20260502150904 18 8 9.7 19.3 0.00 5.05 0.00 79 1018.5
20260502150404 17 348 9.7 20.9 0.00 5.05 0.00 80 1018.5
20260502130405 13 351 3.2 12.9 0.00 5.16 0.00 94 1017.0
20260502122904 12 337 4.8 11.3 0.00 5.16 0.00 94 1016.5
20260502120904 12 345 3.2 12.9 0.00 5.16 0.00 94 1016.3
20260502120404 12 343 3.2 9.7 0.00 5.18 0.00 94 1016.3
20260502115904 12 340 3.2 12.9 0.00 5.18 0.00 94 1016.3
20260502114904 12 324 1.6 12.9 0.00 5.18 0.00 94 1015.9
20260502113904 12 349 3.2 9.7 0.00 5.18 0.00 93 1015.9
20260502112904 12 305 3.2 8.0 0.00 5.18 0.00 93 1015.8
20260502111905 12 351 6.4 11.3 0.00 5.18 0.00 93 1016.0
20260502111404 12 357 1.6 8.0 0.00 5.18 0.00 93 1015.9
20260502110405 12 352 3.2 12.9 0.00 5.18 0.00 93 1015.7
20260502105404 12 318 3.2 9.7 0.00 5.18 0.00 92 1015.7
20260502104404 12 347 1.6 4.8 0.00 5.18 0.00 92 1015.4
20260502102904 12 350 4.8 9.7 0.00 5.18 0.00 92 1015.1
20260502101904 12 348 3.2 8.0 0.00 5.18 0.00 92 1014.9
20260502100904 12 341 1.6 4.8 0.00 5.18 0.00 92 1014.7
20260502071405 13 356 11.3 19.3 0.00 5.18 0.00 95 1013.9
20260502070905 13 0 9.7 20.9 0.00 5.18 0.00 95 1013.9
20260502064905 13 346 6.4 12.9 0.00 5.18 0.00 96 1013.5
20260502063904 13 339 3.2 16.1 0.00 5.21 0.00 96 1013.5
20260502062404 13 342 8.0 11.3 0.00 5.28 0.00 96 1013.4
20260502061404 13 5 6.4 12.9 0.00 5.31 0.00 96 1013.3
20260502060405 13 354 8.0 16.1 0.00 5.31 0.00 96 1013.3
20260502055904 13 347 6.4 14.5 0.00 5.31 0.00 96 1013.4
20260502054904 13 348 8.0 20.9 0.03 5.33 0.00 96 1013.4
20260502054405 13 358 8.0 14.5 0.03 5.33 0.00 96 1013.5
20260502053405 13 345 9.7 19.3 0.03 5.38 0.00 96 1013.6
20260502051405 13 352 11.3 22.5 0.03 6.65 0.00 96 1013.6
20260502044904 13 358 4.8 11.3 0.00 6.63 6.63 97 1013.6
20260502043904 13 352 8.0 16.1 0.03 6.63 6.63 97 1013.5
20260502042404 13 339 8.0 14.5 0.03 6.63 6.63 97 1013.5
20260502041904 13 355 9.7 19.3 0.05 6.63 6.63 97 1013.5
20260502041405 13 358 8.0 16.1 0.05 6.63 6.63 97 1013.5
20260502040905 13 6 9.7 16.1 0.05 6.63 6.63 97 1013.6
20260502034905 13 336 9.7 20.9 0.08 6.63 6.63 97 1013.1
20260502034404 13 338 11.3 24.1 0.08 6.63 6.63 97 1012.7
20260502033904 14 345 11.3 24.1 0.05 6.60 6.60 97 1012.6
20260502032904 14 345 3.2 11.3 0.05 6.65 6.60 97 1012.8
20260502032404 14 344 4.8 11.3 0.05 6.65 6.60 97 1012.0
20260502030904 14 347 8.0 16.1 0.05 6.63 6.58 97 1011.9
20260502030404 14 356 8.0 16.1 0.08 6.63 6.58 97 1011.8
20260502025904 14 352 8.0 14.5 0.08 6.63 6.58 97 1011.5
20260502025405 14 350 6.4 19.3 0.10 6.63 6.58 97 1011.4
20260502023404 14 346 6.4 16.1 0.10 6.60 6.55 97 1011.7
20260502022404 15 358 8.0 14.5 0.13 6.60 6.55 97 1011.8
20260502021405 15 354 6.4 19.3 0.13 6.58 6.53 97 1011.9
20260502020404 15 329 4.8 16.1 0.13 6.55 6.50 97 1011.7
20260502015904 15 349 4.8 11.3 0.13 6.55 6.50 97 1011.5
20260502014904 15 355 1.6 11.3 0.13 6.53 6.48 97 1011.6
20260502014404 15 338 1.6 8.0 0.13 6.55 6.48 97 1011.3
20260502012404 15 331 4.8 11.3 0.20 7.29 6.43 97 1010.5
20260502005404 15 339 8.0 19.3 0.46 8.10 6.35 97 1009.2
20260502004904 15 345 8.0 14.5 0.51 8.20 6.35 97 1009.2
20260502003904 15 1 9.7 22.5 0.61 8.23 6.35 97 1008.9
20260502002904 15 5 4.8 12.9 0.56 8.15 6.27 97 1009.3
20260502001904 15 332 6.4 16.1 0.46 8.03 6.15 97 1009.5
20260502001404 15 343 8.0 19.3 0.41 7.98 6.10 97 1009.2
20260502000904 15 346 8.0 24.1 0.28 7.85 5.97 97 1009.2
20260502000404 15 338 6.4 19.3 0.23 7.80 5.92 97 1009.0
20260501233405 16 350 9.7 19.3 0.08 7.59 5.71 97 1008.7
20260501232904 16 352 11.3 24.1 0.08 7.59 5.71 97 1008.2
20260501231904 16 348 8.0 19.3 0.05 7.57 5.69 97 1008.1
20260501230905 16 328 8.0 19.3 0.05 7.57 5.69 97 1008.0
20260501225904 16 3 8.0 14.5 0.03 7.54 5.66 97 1008.5
20260501222904 16 7 8.0 19.3 0.05 7.52 5.64 97 1008.3
20260501221904 17 341 6.4 14.5 0.18 7.52 5.64 97 1008.6
20260501220904 17 4 8.0 14.5 0.43 7.52 5.64 97 1008.5
20260501220404 17 6 8.0 14.5 0.53 7.52 5.64 97 1009.1
20260501215404 17 349 8.0 12.9 0.64 7.52 5.64 97 1009.0
20260501214404 17 9 3.2 11.3 0.74 7.49 5.61 97 1008.7
20260501213904 17 335 4.8 9.7 0.76 7.49 5.61 97 1008.5
20260501213403 17 356 4.8 9.7 0.84 7.49 5.61 97 1008.2
20260501212404 17 5 8.0 12.9 0.81 7.42 5.54 97 1007.9
20260501211404 17 1 4.8 11.3 0.69 7.21 5.33 97 1007.4
20260501210904 17 358 9.7 19.3 0.56 7.09 5.21 97 1007.5
20260501205404 17 7 8.0 14.5 0.38 6.88 5.00 97 1008.2
20260501204905 17 11 8.0 16.1 0.38 6.83 4.95 97 1008.0
20260501203904 17 31 4.8 12.9 0.36 6.73 4.85 97 1007.4
20260501202404 17 17 4.8 11.3 0.89 6.60 4.72 97 1007.1
20260501201404 17 25 4.8 14.5 0.91 6.53 4.65 97 1006.3
20260501200904 17 36 11.3 19.3 0.94 6.53 4.65 97 1007.4
20260501200404 17 29 6.4 11.3 0.94 6.50 4.62 97 1007.4
20260501195404 17 334 1.6 9.7 0.99 6.50 4.62 97 1007.4
20260501193404 17 61 9.7 19.3 0.76 6.25 4.37 97 1007.1
20260501191903 17 30 9.7 20.9 0.23 5.61 3.73 97 1006.2
20260501191403 17 27 8.0 16.1 0.23 5.61 3.73 97 1006.5
20260501190404 17 12 9.7 16.1 0.18 5.56 3.68 97 1007.3
20260501185903 17 356 9.7 19.3 0.15 5.54 3.66 97 1008.7
20260501185404 17 306 8.0 16.1 0.13 5.51 3.63 97 1008.4
20260501184904 17 15 1.6 12.9 0.13 5.51 3.63 97 1007.4
20260501184403 17 68 4.8 14.5 0.13 5.51 3.63 97 1007.2
20260501183904 17 36 9.7 19.3 0.18 5.51 3.63 97 1007.3
20260501183404 17 33 9.7 19.3 0.15 5.49 3.61 97 1007.6
20260501182904 17 351 8.0 19.3 0.18 5.46 3.58 97 1007.7